Weather History for Jackson, KY

Change the Weather History Date:

Sunday, December 11, 2011

  Actual Average Record
Temperature  
Mean Temperature 34 °F 39 °F  
Max Temperature 46 °F 47 °F 74 °F (2007)
Min Temperature 21 °F 31 °F 14 °F (1995)
Degree Days  
Heating Degree Days 31 26  
Month to date heating degree days 245 268  
Since 1 July heating degree days 962 1068  
Cooling Degree Days 0 0  
Month to date cooling degree days 0 0  
Year to date cooling degree days 1255 1154  
Moisture  
Dew Point 14 °F    
Average Humidity 48    
Maximum Humidity 68    
Minimum Humidity 27    
Precipitation  
Precipitation 0.00 in 0.14 in 1.81 in (2008)
Month to date precipitation 1.52 1.56  
Year to date precipitation 57.35 45.72  
Snow  
Snow 0.00 in 0.10 in - ()
Month to date snowfall 0.3 1.2  
Since 1 July snowfall 0.3 1.8  
Snow Depth 0.00 in    
Sea Level Pressure  
Sea Level Pressure 30.52 in    
Wind  
Wind Speed 1 mph (NE)    
Max Wind Speed 6 mph    
Max Gust Speed 9 mph    
Visibility 10 miles    
Events      
T = Trace of Precipitation, MM = Missing Value Source: NWS Daily Summary

Daily Weather History Graph

Daily Weather History Graph

Search for Another Location

Airport:

Trip Planner

Search our weather history database for the weather conditions in past years. The results will help you decide how hot, cold, wet, or windy it might be!

Date:

Astronomy

Dec. 11, 2011 Rise Set
Actual Time 7:37 AM EST 5:15 PM EST
Civil Twilight 7:08 AM EST 5:44 PM EST
Nautical Twilight 6:35 AM EST 6:16 PM EST
Astronomical Twilight 6:04 AM EST 6:48 PM EST
Moon 6:24 PM EST (12/11) 8:25 AM EST (12/11)
Length of Visible Light 10h 35m
Length of Day
9h 37m
Full, 99% of the Moon is Illuminated
Dec 11
Full
Dec 17
Last Quarter
Dec 24
New
Jan 1
First Quarter
Jan 9
Full

Hourly Weather History & Observations

Time (EST) Temp. Windchill Dew Point Humidity Pressure Visibility Wind Dir Wind Speed Gust Speed Precip Events Conditions
12:53 AM 25.0 °F 20.7 °F 12.0 °F 58% 30.53 in 10.0 mi NE 3.5 mph - N/A   Clear
1:53 AM 25.0 °F - 12.0 °F 58% 30.54 in 10.0 mi Calm Calm - N/A   Clear
2:53 AM 25.0 °F - 12.0 °F 58% 30.54 in 10.0 mi Calm Calm - N/A   Clear
3:53 AM 25.0 °F - 12.0 °F 58% 30.54 in 10.0 mi Calm Calm - N/A   Clear
4:53 AM 25.0 °F - 12.0 °F 58% 30.54 in 10.0 mi Calm Calm - N/A   Clear
5:53 AM 24.1 °F - 10.9 °F 57% 30.57 in 10.0 mi Calm Calm - N/A   Clear
6:53 AM 24.1 °F - 10.9 °F 57% 30.58 in 10.0 mi Calm Calm - N/A   Clear
7:53 AM 21.9 °F - 12.0 °F 66% 30.59 in 10.0 mi Calm Calm - N/A   Clear
8:53 AM 25.0 °F 18.1 °F 14.0 °F 63% 30.59 in 10.0 mi NE 5.8 mph - N/A   Clear
9:53 AM 28.9 °F 23.9 °F 15.1 °F 56% 30.58 in 10.0 mi Variable 4.6 mph - N/A   Clear
10:53 AM 33.1 °F - 17.1 °F 52% 30.58 in 10.0 mi Calm Calm - N/A   Clear
11:53 AM 37.0 °F 34.5 °F 17.1 °F 44% 30.55 in 10.0 mi Variable 3.5 mph - N/A   Clear
12:53 PM 41.0 °F - 17.1 °F 38% 30.52 in 10.0 mi Calm Calm - N/A   Clear
1:53 PM 43.0 °F - 15.1 °F 32% 30.50 in 10.0 mi Calm Calm - N/A   Clear
2:53 PM 45.0 °F - 12.9 °F 27% 30.48 in 10.0 mi Calm Calm - N/A   Clear
3:53 PM 45.0 °F - 14.0 °F 29% 30.47 in 10.0 mi Calm Calm - N/A   Clear
4:53 PM 43.0 °F - 12.9 °F 30% 30.47 in 10.0 mi Calm Calm - N/A   Clear
5:53 PM 39.9 °F - 12.9 °F 33% 30.48 in 10.0 mi Calm Calm - N/A   Clear
6:53 PM 39.0 °F - 14.0 °F 36% 30.48 in 10.0 mi Calm Calm - N/A   Clear
7:53 PM 37.0 °F 34.5 °F 15.1 °F 41% 30.48 in 10.0 mi NE 3.5 mph - N/A   Clear
8:53 PM 36.0 °F - 16.0 °F 44% 30.49 in 10.0 mi Calm Calm - N/A   Clear
9:53 PM 36.0 °F 33.3 °F 16.0 °F 44% 30.47 in 10.0 mi NE 3.5 mph - N/A   Clear
10:53 PM 35.1 °F 32.2 °F 16.0 °F 46% 30.46 in 10.0 mi ENE 3.5 mph - N/A   Clear
11:53 PM 34.0 °F - 15.1 °F 46% 30.45 in 10.0 mi Calm Calm - N/A   Clear